STARLINK-11307 [DTC]

Last updated on Mon Oct 21 2024 00:02:04 GMT+0000 (Coordinated Universal Time)

1 61210U 24171L 24294.58334491 -.00031035 00000+0 -25206-3 0 9994 2 61210 53.1595 146.6218 0001581 98.7458 169.2345 15.69727374 6001
UTC large
Height (km)
Speed (km/s)
/
Latitude / Longitude
Inclination (degrees)
Orbital Period (minutes)
Azimuth
Elevation
Range (km)
Doppler Factor

Next 0 passes for location: London (51.5072 / 0.1276)

Sorry there are no passes over London.